{"data":{"norad_id":35873,"intl_designator":"2009-050A","name":"NIMIQ 5","alt_names":[],"object_type":"PAYLOAD","status":"ACTIVE","operator":null,"country":"CA","launch_date":"2009-09-17","launch_site_code":"TYMSC","launch_vehicle":null,"mission":null,"orbit_class":"UNKNOWN","rcs_meters":94.7185,"size_class":null,"mass_kg":null,"dimensions":null,"purposes":["comms"],"wikipedia_slug":null,"has_3d_model":false,"image_url":null,"decayed_at":null,"tle_current":{"epoch":"2026-09-19T07:16:50.164032Z","epoch_age_seconds":121689,"freshness":"FRESH","line1":"1 35873U 09050A   26262.30335838 -.00000261  00000+0  00000+0 0  9999","line2":"2 35873   0.0176 198.6538 0002753 337.5624 218.5062  1.00270826 62287","mean_motion":1.00270826,"eccentricity":0.0002753,"inclination_deg":0.0176,"raan_deg":198.6538,"arg_perigee_deg":337.5624,"mean_anomaly_deg":218.5062,"bstar":0,"rev_number":6228,"period_min":1436.1106390008,"perigee_km":35775.255781124,"apogee_km":35798.471830568,"semimajor_km":42165.000805846,"source":"CELESTRAK","updated_at":"2026-09-20T09:00:35.159338Z"}}}